[[{"header":{"parameterUnit":"m.s-1","parameterCategory":1,"la1":30.2991,"la2":30.254,"lo1":-89.0895,"lo2":-89.0444,"dx":0.0017,"dy":0.0017,"nx":28,"ny":28,"refTime":"2022-11-26T09:00:00:Z","depth":0,"parameterNumber":2,"parameterNumberName":"U-component_of_WINDS"},"data":[0,0,0,0,0,0,0,0,0,0,0,0,0,0,0,0,0,0,0,0,0,0,0,0,0,0,0,0,0,0,0,0,0,0,0,0,0,0,0,0,0,0,0,0,0,0,0,0,0,0,0,0,0,0,0,0,0,0,3.5085,3.508,0,3.4631,3.4626,3.4621,3.4325,3.4323,3.4321,3.432,3.3854,3.3843,3.3833,0,0,0,0,0,0,0,0,0,0,0,0,0,3.5695,3.5686,3.5086,3.508,3.5074,3.4632,3.4626,3.462,3.4326,3.4323,3.4321,3.4319,3.3857,3.3844,3.3832,0,0,0,0,0,0,0,0,0,0,0,0,0,3.5355,3.5683,3.5086,3.4874,3.4851,3.4633,3.4626,3.4618,3.4326,3.4323,3.432,3.4318,3.3861,3.3846,3.383,3.3788,0,0,3.3781,3.3774,0,0,0,0,0,0,0,0,3.5375,3.5333,3.4911,3.4888,3.4862,3.4532,3.4669,3.434,3.4327,3.4525,3.432,3.4316,3.4081,3.4047,3.3968,3.3766,3.3746,3.378,3.377,3.3763,3.3759,0,0,0,0,0,0,0,3.5399,3.5351,3.4905,3.4905,3.4875,3.4801,3.4749,3.4606,3.4325,3.4508,3.4485,3.4436,3.4067,3.3984,3.3955,3.3739,3.378,3.3766,3.3756,3.375,3.3477,3.348,0,0,0,0,0,0,3.5456,3.5373,3.492,3.4892,3.5117,3.4792,3.4735,3.4641,3.4325,3.4275,3.4438,3.4423,3.4013,3.3974,3.3938,3.3865,3.3763,3.3748,3.3739,3.3475,3.3478,3.348,0,0,0,0,0,0,3.547,3.5419,3.4938,3.5126,3.5059,3.4785,3.4682,3.4633,3.4549,3.4273,3.4221,3.4405,3.4009,3.396,3.3827,3.3845,3.3741,3.3726,3.3472,3.3476,3.3479,3.3724,0,0,0,0,0,0,3.5489,3.5425,3.5407,3.5128,3.505,3.4837,3.4683,3.4626,3.4523,3.4499,3.4228,3.4181,3.4003,3.3852,3.3811,3.3821,3.3714,3.3469,3.3474,3.3478,3.3713,3.3735,3.3754,0,0,0,0,0,3.5512,3.5494,3.5408,3.5355,3.5022,3.4838,3.4794,3.459,3.4526,3.4504,3.4327,3.4189,3.3851,3.3841,3.3792,3.3798,3.3467,3.3473,3.3478,3.3703,3.3731,3.3754,0,0,0,0,0,0,3.5781,3.5453,3.5354,3.5245,3.5072,3.4789,3.4755,3.4626,3.4467,3.4451,3.4205,3.4147,3.4038,3.3904,3.39,3.374,3.3643,3.3639,3.3831,3.3855,3.3875,3.3909,3.3701,0,0,0,0,0,3.5829,3.5708,3.5427,3.5358,3.5276,3.5032,3.4945,3.4803,3.4613,3.4538,3.435,3.4172,3.4024,3.3932,3.3781,3.3693,3.3628,3.3673,3.3694,3.3712,3.3711,3.3652,3.3668,3.3498,3.3498,3.3498,0,0,3.5924,3.573,3.5668,3.5407,3.5256,3.5136,3.4972,3.4852,3.4759,3.4519,3.4382,3.4239,3.4022,3.3911,3.3853,3.3796,3.3744,3.3719,3.3736,3.3723,3.366,3.3676,3.3691,3.3501,3.3501,3.35,0,0,3.6035,3.5878,3.5802,3.5654,3.5428,3.5266,3.5249,3.4984,3.488,3.4739,3.4556,3.4443,3.4195,3.4047,3.3941,3.3999,3.3865,3.3957,3.4065,3.4011,3.4024,3.4035,3.4054,3.4064,3.3956,3.3957,3.3957,0,3.6182,3.5994,3.5779,3.5669,3.556,3.5338,3.5259,3.5126,3.4863,3.4792,3.4734,3.4417,3.4256,3.4107,3.4121,3.4042,3.4014,3.3985,3.404,3.4048,3.4055,3.407,3.4079,3.3969,3.3968,3.3967,3.3966,0,3.6185,3.6058,3.6024,3.5776,3.5662,3.5569,3.5339,3.525,3.512,3.4964,3.4822,3.4621,3.4426,3.438,3.4251,3.4212,3.4184,3.4087,3.3983,3.4087,3.4098,3.4102,3.3987,3.3983,3.3979,3.3976,0,0,3.6451,3.6087,3.6078,3.5963,3.5698,3.5594,3.5491,3.53,3.5228,3.5055,3.4961,3.4757,3.4664,3.4543,3.4395,3.4349,3.4406,3.4255,3.4246,3.4289,3.4349,3.4424,3.4434,3.4317,3.4317,3.4318,3.4367,0,3.6522,3.6325,3.613,3.6002,3.5881,3.567,3.5579,3.5407,3.5259,3.5134,3.4969,3.4828,3.4718,3.4643,3.4588,3.4411,3.4414,3.4405,3.4226,3.4222,3.4285,3.4439,3.4517,3.4573,3.437,3.437,3.437,0,3.6577,3.6414,3.6276,3.6022,3.5964,3.5886,3.5695,3.5579,3.5379,3.5275,3.5141,3.4985,3.4864,3.4777,3.4607,3.4606,3.4521,3.4423,3.442,3.4394,3.4302,3.4416,3.4586,3.4594,3.4375,3.4375,3.4374,0,3.6785,3.653,3.6413,3.6322,3.6023,3.5974,3.5847,3.5644,3.5542,3.5375,3.5306,3.5129,3.5031,3.4897,3.4696,3.4652,3.4548,3.4444,3.4456,3.4461,3.4441,3.4445,3.4599,3.4392,3.4392,3.4392,3.4391,0,3.6882,3.6806,3.6502,3.6431,3.6338,3.6114,3.6028,3.5882,3.5704,3.56,3.5407,3.5313,3.5055,3.493,3.4773,3.4655,3.4613,3.4524,3.4483,3.454,3.4551,3.4479,3.447,3.4393,3.4393,3.4393,3.4392,0,3.7097,3.6891,3.675,3.648,3.641,3.6354,3.6121,3.6043,3.5885,3.5755,3.5712,3.5463,3.5306,3.5094,3.4871,3.4765,3.4668,3.4604,3.4736,3.4711,3.4734,3.4735,3.4846,3.4848,3.4644,3.4646,3.4648,0,3.7172,3.7108,3.6831,3.6748,3.6628,3.6496,3.6391,3.6169,3.6067,3.5835,3.5785,3.5614,3.5464,3.5223,3.5022,3.485,3.4779,3.483,3.4752,3.4811,3.4777,3.4783,3.4775,3.4849,3.4852,3.4855,3.4857,0,3.7327,3.7228,3.7085,3.6907,3.6787,3.6636,3.6475,3.6418,3.6161,3.6057,3.5894,3.5779,3.5552,3.5383,3.5185,3.5052,3.4912,3.4884,3.4877,3.4934,3.5012,3.4968,3.4786,3.4882,3.4879,3.4878,3.4876,3.4875,3.7471,3.7404,3.7199,3.7046,3.6902,3.6757,3.667,3.6502,3.6363,3.6161,3.6038,3.5881,3.5681,3.5401,3.5275,3.5148,3.5092,3.5084,3.508,3.5081,3.51,3.5035,3.5112,3.511,3.511,3.5109,3.5108,0,3.7614,3.7473,3.7334,3.7116,3.6996,3.6876,3.6692,3.6599,3.6463,3.629,3.6147,3.596,3.5796,3.5583,3.5404,3.5343,3.5274,3.5303,3.5304,3.5276,3.5161,3.5183,3.5362,3.5362,3.5362,3.5362,3.5362,3.5362,3.7675,3.7554,3.7433,3.7239,3.7096,3.6941,3.6847,3.6711,3.6571,3.6372,3.6235,3.6098,3.5907,3.5713,3.5557,3.5498,3.544,3.5489,3.5411,3.5307,3.5284,3.5262,3.5282,3.5479,3.5479,3.5535,3.5536,3.5536]},{"header":{"parameterUnit":"m.s-1","parameterCategory":1,"la1":30.2991,"la2":30.254,"lo1":-89.0895,"lo2":-89.0444,"dx":0.0017,"dy":0.0017,"nx":28,"ny":28,"refTime":"2022-11-26T09:00:00:Z","depth":0,"parameterNumber":3,"parameterNumberName":"V-component_of_WINDS"},"data":[0,0,0,0,0,0,0,0,0,0,0,0,0,0,0,0,0,0,0,0,0,0,0,0,0,0,0,0,0,0,0,0,0,0,0,0,0,0,0,0,0,0,0,0,0,0,0,0,0,0,0,0,0,0,0,0,0,0,6.9116,6.9121,0,6.9603,6.9609,6.9614,6.9765,6.9763,6.9761,6.9759,7.0252,7.0267,7.0282,0,0,0,0,0,0,0,0,0,0,0,0,0,6.831,6.8324,6.9115,6.9122,6.9128,6.9602,6.9609,6.9615,6.9766,6.9763,6.976,6.9757,7.0247,7.0265,7.0283,0,0,0,0,0,0,0,0,0,0,0,0,0,6.8714,6.8329,6.9114,6.926,6.9278,6.9601,6.9609,6.9617,6.9766,6.9763,6.9759,6.9756,7.0241,7.0263,7.0286,7.0497,0,0,7.0356,7.0366,0,0,0,0,0,0,0,0,6.8691,6.8744,6.9233,6.9251,6.9271,6.962,6.9506,6.9912,6.9767,6.9581,6.9758,6.9754,7.0044,7.0083,7.0182,7.0521,7.0542,7.0358,7.0372,7.0382,7.0388,0,0,0,0,0,0,0,6.8663,6.8724,6.9308,6.9239,6.9263,6.9299,6.9353,6.9584,6.9826,6.9597,6.9609,6.9665,7.0054,7.0159,7.0195,7.0549,7.0357,7.0378,7.0392,7.0401,7.1086,7.109,0,0,0,0,0,0,6.8611,6.8699,6.9293,6.9323,6.8967,6.9317,6.9377,6.9511,6.9824,6.9868,6.9667,6.967,7.0122,7.0168,7.0212,7.0482,7.0382,7.0403,7.0416,7.1082,7.1087,7.1092,0,0,0,0,0,0,6.8593,6.8663,6.9273,6.9015,6.9095,6.9334,6.9484,6.9523,6.9629,6.9877,6.9921,6.9731,7.0121,7.018,7.0426,7.0501,7.0414,7.0434,7.1077,7.1083,7.109,7.1022,0,0,0,0,0,0,6.857,6.8655,6.874,6.9016,6.9109,6.948,6.9489,6.9535,6.9669,6.9677,6.9949,6.999,7.0123,7.0391,7.0449,7.0531,7.0452,7.1071,7.108,7.1087,7.1018,7.1025,7.1031,0,0,0,0,0,6.854,6.87,6.8743,6.8814,6.9219,6.9484,6.9537,6.9688,6.9674,6.976,6.9919,6.9981,7.0483,7.0415,7.0481,7.0572,7.1067,7.1077,7.1087,7.1015,7.1024,7.1031,0,0,0,0,0,0,6.8424,6.8738,6.879,6.9044,6.9236,6.9509,6.9622,6.9692,6.9891,6.989,7.0067,7.0127,7.036,7.0491,7.0409,7.0793,7.0777,7.0801,7.07,7.071,7.0716,7.0681,7.0471,0,0,0,0,0,6.8428,6.8619,6.8883,6.9081,6.9175,6.9381,6.9502,6.9602,6.9808,6.989,7.0068,7.0263,7.0465,7.0595,7.0794,7.1037,7.1098,7.1132,7.1138,7.1142,7.1161,7.13,7.1318,7.1125,7.1125,7.1124,0,0,6.8438,6.8634,6.8743,6.9062,6.9223,6.9416,6.9449,6.9651,6.9795,6.992,7.0164,7.0301,7.0531,7.0776,7.0893,7.0892,7.1228,7.1155,7.1156,7.1174,7.1312,7.133,7.1346,7.1131,7.113,7.1129,0,0,6.8556,6.8722,6.8907,6.9068,6.9312,6.9448,6.9491,6.9755,6.9851,7.0099,7.0197,7.0369,7.0714,7.0874,7.1,7.1178,7.1242,7.1237,7.1271,7.1404,7.142,7.1434,7.1498,7.1519,7.1255,7.1255,7.1255,0,6.8537,6.8833,6.8992,6.919,6.9328,6.9451,6.9638,6.9786,7.0081,7.0172,7.0167,7.0602,7.0766,7.1051,7.1094,7.1192,7.1247,7.1208,7.1405,7.1421,7.1437,7.15,7.1524,7.1253,7.1253,7.1253,7.1253,0,6.8798,6.9002,6.9121,6.9406,6.9556,6.9747,6.9934,7.0067,7.0153,7.0289,7.0539,7.074,7.0982,7.1057,7.1142,7.1355,7.1346,7.137,7.1358,7.145,7.1513,7.1538,7.125,7.125,7.1251,7.1252,0,0,6.8857,6.9228,6.9269,6.94,6.9678,6.9838,7.0033,7.0273,7.0384,7.0583,7.0751,7.104,7.1064,7.1207,7.1311,7.1428,7.1557,7.1439,7.1447,7.1455,7.1804,7.1785,7.1811,7.16,7.1605,7.161,7.1785,0,6.9011,6.937,6.9518,6.9807,6.9997,7.0116,7.0287,7.0475,7.0607,7.0786,7.0931,7.1133,7.1149,7.1237,7.1357,7.1515,7.1629,7.1504,7.1759,7.1766,7.1699,7.1843,7.1825,7.198,7.181,7.1814,7.1818,0,6.9239,6.9442,6.975,7.0006,7.0091,7.0243,7.0474,7.0644,7.0859,7.0947,7.1106,7.1204,7.1413,7.1386,7.1675,7.1587,7.1699,7.1792,7.1802,7.1833,7.1798,7.1879,7.2034,7.2057,7.1857,7.1854,7.1851,0,6.9253,6.9603,6.9833,6.9941,7.0245,7.0349,7.0479,7.0691,7.0826,7.1027,7.1116,7.1337,7.1459,7.1627,7.1782,7.1748,7.2058,7.2043,7.2136,7.2132,7.2198,7.2192,7.2373,7.2266,7.2266,7.2265,7.2265,0,6.941,6.9594,6.9844,6.9985,7.0195,7.0362,7.0564,7.0703,7.0891,7.106,7.1175,7.1331,7.1526,7.1706,7.1828,7.205,7.2103,7.2179,7.221,7.2171,7.2161,7.2248,7.2241,7.2272,7.227,7.2269,7.2268,0,6.9461,6.9636,6.9895,7.0162,7.0233,7.0375,7.0603,7.0744,7.0881,7.1095,7.1154,7.1369,7.1587,7.1758,7.2041,7.2123,7.2358,7.239,7.2286,7.2302,7.2387,7.2377,7.2632,7.2674,7.2536,7.2537,7.2538,0,6.9551,6.9696,6.9979,7.0102,7.0233,7.0429,7.0567,7.0737,7.0876,7.1132,7.1242,7.1469,7.166,7.2003,7.2184,7.2401,7.2441,7.2515,7.2474,7.243,7.2444,7.2434,7.2449,7.252,7.2521,7.2521,7.2522,0,6.9692,6.9772,6.9968,7.0195,7.0358,7.0544,7.0732,7.0826,7.1029,7.1179,7.1406,7.1554,7.1845,7.2069,7.2305,7.2438,7.2514,7.2533,7.2567,7.2528,7.2463,7.2501,7.2301,7.2527,7.2526,7.2526,7.2526,7.2525,6.9767,6.9902,7.0123,7.0338,7.0498,7.0671,7.0818,7.0974,7.1166,7.1418,7.1506,7.1738,7.1949,7.2275,7.2409,7.2593,7.2597,7.2644,7.2657,7.2667,7.2663,7.2432,7.2636,7.2636,7.2636,7.2636,7.2636,0,6.9915,7.0064,7.026,7.0521,7.069,7.0748,7.096,7.1096,7.1301,7.1492,7.1678,7.1938,7.2155,7.2353,7.2579,7.2688,7.2728,7.2742,7.2736,7.2766,7.2646,7.2596,7.2705,7.2705,7.2705,7.2705,7.2705,7.2705,7.0013,7.0244,7.0349,7.0661,7.0808,7.1039,7.1155,7.1315,7.1469,7.1754,7.1937,7.2065,7.2259,7.25,7.2702,7.2754,7.2833,7.2837,7.2898,7.2783,7.2774,7.2765,7.2719,7.2853,7.2853,7.3003,7.3005,7.3006]}]]